KD4WOZ Weather Reports


Display with metric or nautical units.
time (UTC)temp
F
wind
direction
speed
MPH
gust
MPH
rain 1hr
in
rain 24hr
in
rain mn
in
humidity
%
barometer
mb
20260507111101 59 65 11.0 17.0 0.00 0.02 0.00 85 1010.8
20260507110601 59 57 9.0 14.0 0.00 0.02 0.00 86 1010.4
20260507105609 59 31 9.0 16.0 0.00 0.02 0.00 85 1010.3
20260507105100 59 5 7.0 16.0 0.00 0.02 0.00 85 1010.3
20260507104601 59 63 8.0 15.0 0.00 0.02 0.00 85 1010.3
20260507104102 59 53 6.0 13.0 0.00 0.02 0.00 86 1010.2
20260507102101 59 67 6.0 16.0 0.00 0.02 0.00 85 1010.2
20260507101600 59 16 6.0 16.0 0.00 0.02 0.00 85 1010.3
20260507100602 59 26 7.0 17.0 0.00 0.02 0.00 84 1010.2
20260507095602 59 32 9.0 15.0 0.00 0.02 0.00 83 1010.1
20260507094602 59 338 8.0 16.0 0.00 0.02 0.00 83 1010.1
20260507094103 60 352 9.0 18.0 0.00 0.02 0.00 82 1010.1
20260507093603 60 43 9.0 18.0 0.00 0.02 0.00 83 1009.9
20260507092101 60 342 6.0 15.0 0.00 0.02 0.00 84 1009.8
20260507091602 60 15 7.0 19.0 0.00 0.02 0.00 84 1009.6
20260507090602 60 37 7.0 15.0 0.00 0.02 0.00 86 1009.6
20260507084602 61 62 9.0 15.0 0.00 0.02 0.00 87 1009.6
20260507083601 62 347 10.0 18.0 0.00 0.02 0.00 86 1009.5
20260507082102 63 24 10.0 16.0 0.00 0.02 0.00 84 1009.5
20260507081601 63 336 8.0 20.0 0.00 0.02 0.00 82 1009.7
20260507081105 64 11 10.0 20.0 0.00 0.02 0.00 81 1009.5
20260507080604 66 352 9.0 17.0 0.00 0.02 0.00 82 1009.3
20260507075600 68 22 5.0 7.0 0.00 0.02 0.00 86 1009.1
20260507075100 68 5 3.0 7.0 0.00 0.02 0.00 86 1009.1
20260507074602 68 348 5.0 6.0 0.00 0.02 0.00 86 1008.9
20260507074102 68 324 1.0 4.0 0.00 0.02 0.00 85 1008.9
20260507073602 68 333 2.0 4.0 0.00 0.02 0.00 85 1008.6
20260507072602 69 290 3.0 4.0 0.00 0.02 0.00 84 1008.5
20260507072102 69 300 2.0 5.0 0.00 0.02 0.00 84 1008.3
20260507071603 69 350 3.0 5.0 0.00 0.02 0.00 83 1008.1
20260507065103 70 0 2.0 5.0 0.00 0.02 0.00 80 1007.7
20260507064603 71 342 3.0 4.0 0.00 0.02 0.00 80 1007.8
20260507063602 71 328 1.0 8.0 0.00 0.02 0.00 79 1007.8
20260507063102 71 284 4.0 8.0 0.00 0.02 0.00 79 1007.9
20260507062101 71 268 4.0 8.0 0.00 0.02 0.00 78 1007.8
20260507061601 71 249 4.0 13.0 0.00 0.02 0.00 78 1007.8
20260507061101 71 262 7.0 13.0 0.00 0.02 0.00 78 1007.9
20260507060600 71 288 8.0 15.0 0.00 0.02 0.00 78 1007.9
20260507060100 71 279 12.0 15.0 0.00 0.02 0.00 78 1008.1
20260507055600 71 260 7.0 17.0 0.00 0.02 0.00 78 1008.1
20260507055101 71 275 10.0 17.0 0.00 0.02 0.00 78 1008.3
20260507054603 71 259 8.0 14.0 0.00 0.02 0.00 79 1008.4
20260507054101 71 265 9.0 14.0 0.00 0.02 0.00 79 1008.5
20260507053100 71 261 11.0 15.0 0.00 0.02 0.00 79 1008.7
20260507052101 71 261 8.0 15.0 0.00 0.02 0.00 79 1008.7
20260507051602 71 275 9.0 13.0 0.00 0.02 0.00 78 1008.5
20260507051100 71 279 6.0 11.0 0.00 0.02 0.00 78 1008.7
20260507050100 71 241 8.0 13.0 0.00 0.02 0.00 78 1008.9
20260507045602 71 248 8.0 13.0 0.00 0.02 0.00 77 1008.9
20260507044602 71 269 10.0 15.0 0.00 0.02 0.00 77 1008.8
20260507044102 71 250 9.0 16.0 0.00 0.02 0.00 77 1008.9
20260507043602 71 270 9.0 17.0 0.00 0.02 0.00 78 1009.0
20260507043101 71 264 13.0 17.0 0.00 0.02 0.00 78 1009.0
20260507042602 71 261 9.0 18.0 0.00 0.02 0.00 78 1009.0
20260507042101 71 269 10.0 18.0 0.00 0.02 0.00 78 1008.8
20260507040602 71 267 10.0 15.0 0.00 0.02 0.00 78 1008.8
20260507040101 71 254 9.0 16.0 0.00 0.02 0.00 78 1008.7
20260507035601 71 266 9.0 16.0 0.00 0.02 0.02 78 1008.7
20260507034602 70 241 10.0 17.0 0.00 0.02 0.02 78 1008.6
20260507034100 70 285 6.0 15.0 0.00 0.02 0.02 78 1008.7
20260507033100 70 257 6.0 15.0 0.00 0.02 0.02 78 1008.8
20260507032603 70 263 9.0 15.0 0.00 0.02 0.02 79 1008.7
20260507030601 70 220 3.0 9.0 0.00 0.02 0.02 78 1008.9
20260507025602 70 223 4.0 9.0 0.00 0.02 0.02 78 1008.9
20260507025103 70 267 6.0 9.0 0.00 0.02 0.02 78 1008.7
20260507024602 70 269 3.0 8.0 0.00 0.02 0.02 78 1008.8
20260507023102 70 268 6.0 11.0 0.00 0.02 0.02 77 1009.1
20260507022602 70 268 5.0 11.0 0.00 0.02 0.02 78 1009.1
20260507021603 70 222 7.0 12.0 0.00 0.02 0.02 78 1008.8
20260507021101 70 227 3.0 12.0 0.00 0.02 0.02 78 1008.8
20260507020601 70 233 6.0 12.0 0.00 0.02 0.02 78 1009.0
20260507015604 69 242 3.0 8.0 0.00 0.02 0.02 78 1009.0
20260507015102 69 257 3.0 8.0 0.00 0.02 0.02 78 1009.1
20260507014602 69 190 2.0 6.0 0.00 0.02 0.02 78 1009.1
20260507014102 69 236 3.0 4.0 0.00 0.02 0.02 78 1009.2
20260507013602 69 238 2.0 4.0 0.00 0.02 0.02 78 1009.1
20260507013103 69 239 2.0 4.0 0.00 0.02 0.02 78 1009.1
20260507012602 69 234 2.0 4.0 0.00 0.02 0.02 78 1009.1
20260507012102 69 228 2.0 4.0 0.00 0.02 0.02 78 1009.4
20260507011607 69 234 2.0 4.0 0.00 0.02 0.02 77 1009.3
20260507011103 70 218 2.0 4.0 0.00 0.02 0.02 77 1009.2
20260507005103 70 236 3.0 4.0 0.00 0.02 0.02 76 1009.2
20260507004602 70 236 2.0 4.0 0.00 0.02 0.02 75 1009.3
20260507004103 71 208 3.0 4.0 0.00 0.02 0.02 75 1009.1
20260507003603 71 213 2.0 4.0 0.00 0.02 0.02 75 1009.1
20260507002603 71 225 2.0 4.0 0.00 0.02 0.02 74 1009.2
20260507002101 71 238 0.0 4.0 0.00 0.02 0.02 73 1009.2
20260507001601 72 240 2.0 3.0 0.00 0.02 0.02 73 1009.2
20260507001101 72 244 1.0 4.0 0.00 0.02 0.02 72 1009.1
20260507000601 72 254 2.0 4.0 0.00 0.02 0.02 72 1009.1
20260506235602 73 223 3.0 8.0 0.00 0.02 0.02 71 1009.0
20260506235101 73 238 5.0 9.0 0.00 0.02 0.02 71 1009.0
20260506232602 73 272 5.0 10.0 0.00 0.02 0.02 70 1009.1
20260506231103 73 275 5.0 11.0 0.00 0.02 0.02 70 1008.8
20260506230602 73 253 6.0 13.0 0.00 0.02 0.02 69 1008.7
20260506225103 74 245 9.0 15.0 0.00 0.02 0.02 69 1008.6
20260506224602 74 224 7.0 13.0 0.00 0.02 0.02 68 1008.5
20260506223103 74 222 8.0 17.0 0.00 0.02 0.02 68 1008.7
20260506222602 74 278 8.0 17.0 0.00 0.02 0.02 68 1008.7
20260506222102 74 252 11.0 17.0 0.00 0.02 0.02 68 1008.9
20260506221601 74 259 8.0 19.0 0.00 0.02 0.02 68 1008.9
20260506221103 74 271 11.0 19.0 0.00 0.02 0.02 68 1008.9
20260506220603 74 270 10.0 21.0 0.00 0.02 0.02 68 1009.0
20260506215601 74 239 8.0 15.0 0.00 0.02 0.02 69 1008.9
20260506215102 74 229 6.0 13.0 0.00 0.02 0.02 70 1008.7
20260506214602 74 249 9.0 13.0 0.00 0.02 0.02 69 1008.8
20260506214103 73 243 4.0 10.0 0.00 0.02 0.02 71 1008.9
20260506213602 73 274 4.0 10.0 0.00 0.02 0.02 71 1008.9
20260506213102 73 217 6.0 10.0 0.00 0.02 0.02 71 1008.8
20260506212102 72 256 4.0 7.0 0.00 0.02 0.02 71 1008.9
20260506211601 72 276 5.0 7.0 0.00 0.02 0.02 71 1009.1
20260506211103 72 292 4.0 9.0 0.00 0.02 0.02 71 1009.0
20260506205603 72 278 7.0 11.0 0.00 0.02 0.02 71 1008.7
20260506204102 72 277 2.0 8.0 0.00 0.02 0.02 71 1008.5
20260506203603 72 261 3.0 10.0 0.00 0.02 0.02 71 1008.2
20260506203102 72 196 4.0 11.0 0.00 0.02 0.02 71 1008.2
20260506201602 72 265 9.0 13.0 0.00 0.02 0.02 70 1008.7
20260506201102 72 263 7.0 14.0 0.00 0.02 0.02 70 1008.8
20260506200604 71 256 11.0 19.0 0.00 0.02 0.02 70 1008.7
20260506200104 71 200 6.0 19.0 0.00 0.02 0.02 71 1008.4
20260506195602 71 236 6.0 13.0 0.00 0.02 0.02 71 1008.1
20260506195103 71 183 6.0 13.0 0.00 0.02 0.02 71 1008.3
20260506194602 71 221 7.0 16.0 0.00 0.02 0.02 72 1008.6
20260506194102 71 259 9.0 16.0 0.00 0.02 0.02 71 1008.9
20260506193602 71 248 6.0 14.0 0.00 0.02 0.02 72 1009.0
20260506193102 71 271 7.0 14.0 0.00 0.02 0.02 72 1009.2
20260506192103 71 213 7.0 18.0 0.00 0.02 0.02 73 1009.1
20260506191604 71 271 10.0 18.0 0.00 0.02 0.02 72 1009.6
20260506190602 71 217 10.0 19.0 0.00 0.02 0.02 72 1009.7
20260506185602 71 196 8.0 17.0 0.00 0.02 0.02 73 1009.7
20260506185102 71 196 10.0 17.0 0.00 0.02 0.02 73 1009.7
20260506184103 70 221 7.0 16.0 0.00 0.02 0.02 74 1010.0
20260506183606 70 196 8.0 15.0 0.00 0.02 0.02 75 1010.0
20260506183105 70 191 6.0 15.0 0.00 0.02 0.02 76 1010.2
20260506182602 70 202 6.0 14.0 0.00 0.02 0.02 76 1010.2
20260506182102 69 192 4.0 10.0 0.00 0.02 0.02 76 1010.3
20260506181602 69 215 5.0 12.0 0.00 0.02 0.02 76 1010.4
20260506181102 69 283 8.0 13.0 0.00 0.02 0.02 76 1010.4
20260506180602 69 242 8.0 13.0 0.00 0.02 0.02 76 1010.7
20260506175102 69 241 7.0 16.0 0.01 0.01 0.02 75 1010.4
20260506174603 69 230 9.0 16.0 0.01 0.01 0.02 75 1010.5
20260506174102 69 233 7.0 16.0 0.01 0.01 0.02 76 1010.5
20260506173602 69 272 10.0 16.0 0.01 0.01 0.02 80 1010.5
20260506173102 69 196 11.0 17.0 0.01 0.01 0.02 79 1010.5
20260506172601 68 224 9.0 17.0 0.01 0.01 0.02 80 1010.5
20260506172102 68 211 8.0 15.0 0.01 0.01 0.02 82 1010.5
20260506171603 67 218 10.0 19.0 0.01 0.01 0.02 82 1010.6
20260506171103 67 198 10.0 19.0 0.01 0.01 0.02 81 1010.6
20260506170602 67 234 6.0 12.0 0.01 0.01 0.02 81 1010.7
20260506165103 67 234 9.0 16.0 0.01 0.01 0.01 80 1011.0
20260506164601 67 221 9.0 15.0 0.01 0.01 0.01 80 1011.0
20260506163601 67 194 6.0 13.0 0.01 0.01 0.01 81 1011.2
20260506162601 66 224 6.0 14.0 0.01 0.01 0.01 81 1011.5
20260506162101 66 241 4.0 13.0 0.01 0.01 0.01 82 1011.6
20260506161601 66 219 8.0 13.0 0.01 0.01 0.01 81 1011.4
20260506161101 66 200 5.0 11.0 0.01 0.01 0.01 81 1011.6
20260506160609 66 277 7.0 13.0 0.01 0.01 0.01 80 1011.8
20260506155102 67 263 8.0 19.0 0.00 0.00 0.00 76 1012.1
20260506154601 68 243 13.0 22.0 0.00 0.00 0.00 75 1012.2
20260506154102 68 244 10.0 22.0 0.00 0.00 0.00 73 1012.1
20260506153059 69 238 9.0 24.0 0.00 0.00 0.00 71 1012.2
20260506152555 69 258 11.0 24.0 0.00 0.00 0.00 70 1012.1
20260506151048 69 252 8.0 17.0 0.00 0.00 0.00 71 1012.2
20260506150549 69 224 10.0 17.0 0.00 0.00 0.00 70 1012.2
20260506150047 69 238 8.0 17.0 0.00 0.00 0.00 70 1012.1
20260506145545 69 204 9.0 17.0 0.00 0.00 0.00 70 1011.9
20260506145046 69 252 7.0 17.0 0.00 0.00 0.00 70 1011.8
20260506143544 69 209 9.0 17.0 0.00 0.00 0.00 70 1011.9
20260506143036 69 202 9.0 18.0 0.00 0.00 0.00 70 1011.8
20260506142532 69 236 13.0 21.0 0.00 0.00 0.00 70 1011.9
20260506142029 69 214 9.0 21.0 0.00 0.00 0.00 69 1011.9
20260506141529 69 219 12.0 21.0 0.00 0.00 0.00 69 1011.7
20260506141029 69 205 9.0 21.0 0.00 0.00 0.00 69 1011.7
20260506140529 69 221 11.0 21.0 0.00 0.00 0.00 69 1011.8
20260506140028 69 259 10.0 17.0 0.00 0.00 0.00 69 1012.0
20260506134530 69 215 8.0 19.0 0.00 0.00 0.00 70 1011.7
20260506134029 69 238 9.0 23.0 0.00 0.00 0.00 70 1011.7
20260506133529 69 194 9.0 23.0 0.00 0.00 0.00 70 1011.8
20260506132529 69 196 12.0 19.0 0.00 0.00 0.00 70 1011.9
20260506131529 69 208 8.0 13.0 0.00 0.00 0.00 71 1012.1
20260506131029 69 218 6.0 14.0 0.00 0.00 0.00 71 1012.1
20260506130528 68 242 8.0 14.0 0.00 0.00 0.00 71 1012.1
20260506130030 68 245 7.0 18.0 0.00 0.00 0.00 71 1012.1
20260506125529 68 210 11.0 18.0 0.00 0.00 0.00 71 1012.0
20260506125030 68 213 6.0 13.0 0.00 0.00 0.00 72 1012.0
20260506124529 67 220 6.0 15.0 0.00 0.00 0.00 72 1012.1
20260506124029 67 220 8.0 15.0 0.00 0.00 0.00 72 1012.0
20260506123528 67 190 8.0 15.0 0.00 0.00 0.00 72 1012.2
20260506122044 67 261 10.0 22.0 0.00 0.00 0.00 72 1012.4
20260506120530 67 242 9.0 18.0 0.00 0.00 0.00 73 1012.3
20260506120031 67 196 9.0 18.0 0.00 0.00 0.00 73 1012.2
20260506115030 66 211 6.0 17.0 0.00 0.00 0.00 73 1012.3
20260506114530 66 205 10.0 17.0 0.00 0.00 0.00 73 1012.3
20260506114030 66 232 10.0 18.0 0.00 0.00 0.00 73 1012.3
20260506113531 66 218 10.0 18.0 0.00 0.00 0.00 73 1012.2
20260506112529 66 219 11.0 19.0 0.00 0.00 0.00 73 1012.1
20260506111530 65 205 8.0 15.0 0.00 0.00 0.00 73 1012.0